Simultaneous Nadir Overpasses (SNOs) Predictions

Prediction of SNOs between GOES-16 and NPP Satellite Orbit:

Table of predicted SNOs for the next 14.0 days since TLE Epoch: 11/9/2019
Index Date Time (GOES-16) GOES-16 Lat,Lon NPP Lat,Lon Distance(km) Time Diff (sec)
1 11/09/2019 18:33:03 0.00, -75.20 -0.45, -77.26 235.05 80
2 11/10/2019 18:16:58 0.00, -75.20 0.54, -72.72 281.81 80
3 11/12/2019 06:38:45 -0.00, -75.21 0.63, -78.00 317.88 80
4 11/13/2019 06:17:20 -0.00, -75.21 -0.42, -73.47 199.07 80
5 11/14/2019 18:39:16 0.00, -75.22 -0.79, -78.77 404.74 80
6 11/15/2019 18:23:10 0.00, -75.23 0.20, -74.23 112.38 80
7 11/17/2019 06:44:58 0.00, -75.24 0.96, -79.51 486.86 80
8 11/18/2019 06:23:32 0.00, -75.24 -0.03, -74.97 30.49 80
9 11/20/2019 18:26:43 -0.00, -75.26 -0.12, -75.75 55.43 80
10 11/21/2019 18:10:38 -0.00, -75.28 0.93, -71.22 462.38 80




NCC Satellite Simultaneous Nadir Overpasses (SNOs) Prediction Service
